Regional Weather Roundup
Issued by NWS

Home | Current Version | Previous Version | Graphics & Text | Print | Product List | Glossary On
Versions: 1 2 3 4 5 6 7 8 9 10 11 12 13 14 15 16 17 18 19 20 21 22 23 24 25 26 27 28 29 30 31 32 33 34 35 36 37 38 39 40 41 42 43 44 45 46 47 48 49 50
000
ASUS43 KLSX 111259
RWRMO

WEATHER SUMMARY FOR MISSOURI
NATIONAL WEATHER SERVICE SPRINGFIELD MO
800 AM CDT FRI JUL 11 2014

NOTE: "FAIR" INDICATES FEW OR NO CLOUDS BELOW 12,000 FEET WITH NO
       SIGNIFICANT WEATHER AND/OR OBSTRUCTIONS TO VISIBILITY.
       CURRENT SKY AND/OR WEATHER CONDITIONS ARE NOT AVAILABLE FOR
       CHILLICOTHE AND FARMINGTON.

MOZ001>031-035>038-043-044-053-054-111400-
...NORTHERN AND WESTERN MISSOURI...

CITY           SKY/WX    TMP DP  RH WIND       PRES   REMARKS
KANSAS CTY INT PTSUNNY   73  66  78 S13       30.04F
KANSAS C DTWN  PTSUNNY   74  66  76 S8        30.04F
LEE`S SUMMIT   PTSUNNY   71  65  81 S10G20    30.07F
ST JOSEPH      MOSUNNY   72  66  81 SE10      30.03F
CHILLICOTHE      N/A     70  64  81 S7        30.09S
KIRKSVILLE     MOSUNNY   68  61  78 SE14      30.12F

$$
MOZ066>068-077>081-088>096-101>105-111400-
...SOUTHWEST MISSOURI...

CITY           SKY/WX    TMP DP  RH WIND       PRES   REMARKS
SPRINGFIELD    SUNNY     72  67  84 S14       30.14R
JOPLIN         SUNNY     71  65  81 SE9       30.10S

$$
MOZ032>034-039>042-045>050-055>058-069>072-111400-
...CENTRAL MISSOURI...

CITY           SKY/WX    TMP DP  RH WIND       PRES   REMARKS
COLUMBIA       SUNNY     70  65  84 SE9       30.14S
JEFFERSON CITY SUNNY     70  65  84 E5        30.13S
ROLLA          SUNNY     71  63  75 SE10      30.15S
SEDALIA        PTSUNNY   71  67  87 S10       30.11S
OSAGE BEACH    CLOUDY    70  64  83 SE7       30.13F

$$
MOZ051-052-059>065-111400-
...EAST CENTRAL MISSOURI...

CITY           SKY/WX    TMP DP  RH WIND       PRES   REMARKS
ST LOUIS INTL  SUNNY     73  60  63 SE9       30.18R
SPIRIT OF STL  SUNNY     70  61  73 SE3       30.16S
ST CHARLES     SUNNY     69  63  81 SE3       30.16S

$$
MOZ072>076-082>087-097>100-106>115-111400-
...SOUTH CENTRAL AND SOUTHEAST MISSOURI...

CITY           SKY/WX    TMP DP  RH WIND       PRES   REMARKS
CAPE GIRARDEAU SUNNY     71  65  81 E3        30.18R
FARMINGTON     SUNNY     66  63  88 CALM      30.21R
POPLAR BLUFF   CLOUDY    72  65  78 CALM      30.16R
WEST PLAINS      N/A     70  64  81 E5        30.19R

$$


USA.gov is the U.S. government's official web portal to all federal, state and local government web resources and services.